Location: Brusselsch Zeekanaal
(50.8667°N, 4.3667°E)
Time: 23:06:47
(UTC+00:00)

BlueWalker 3 - Pass Details

Date: 08 November 2025
Orbit: 455 x 462 km, 53.2° (Epoch: 03 December)

Event Time Altitude Azimuth Distance (km) Brightness Sun altitude
Exits shadow 05:24:28 17° 243° (WSW) 1,264 3.5 -13.1°
Maximum altitude 05:25:23 18° 223° (SW) 1,200 3.5 -13.0°
Drops below altitude 10° 05:27:54 10° 179° (S) 1,603 4.6 -12.6°
Sets 05:30:30 0° 160° (SSE) 2,470 5.9 -12.2°
